Weather in Tinaki

Russia / Astrakhan Oblast     46°24′22″N   47°56′14″E
temp.,
°C
wind,
m/s
gust,
m/s
humid.,
%
clouds,
%
prec.,
mm/h
press.,
hPa
HPBL,
m
28 june, tue
tue2801:00+26ne612194 0.0 1011482
04:00+23ne61233100 0.1 1011325
07:00+24ene4826100 0.0 1011447
10:00+27ene5623100 0.0 10111131
13:00+30ne5619100 0.0 10101615
16:00+31ne4517100 0.0 10092010
19:00+31n2419100 0.0 1008744
22:00+28n3424100 0.0 100986
29 june, wed
wed2901:00+27nne51034100 0.0 1009358
04:00+25ne7114791 0.0 1010600
07:00+22ne71137100 0.0 1012563
10:00+24ne783597 0.1 1014958
13:00+27ne562788 0.7 10141385
16:00+27ne5523100 0.7 10131767
19:00+27nne55190 0.0 10131788
22:00+21nne49210 0.0 1014240
30 june, thu
thu3001:00+19ne49270 0.0 1015248
04:00+17ne47380 0.0 1015168
07:00+19ene34351 0.0 1016284
10:00+23n34285 0.0 10161925
13:00+26n44230 0.0 10152330
16:00+27nnw55237 0.0 10132495
19:00+25nw54275 0.0 10132020
22:00+22nw34335 0.0 1014113
1 july, fri
fri101:00+20n34355 0.0 101379
04:00+19nnw2337100 0.0 101350
07:00+21nnw22341 0.0 1013198
10:00+26nw34265 0.0 10132650
13:00+28nw56214 0.0 10123107
16:00+29nnw78201 0.0 10113104
19:00+27n77265 0.0 10121910
22:00+22n48330 0.0 1014450
2 july, sat
sat201:00+19nne48381 0.0 1014218
04:00+17nne48360 0.0 1015235
07:00+19ne57410 0.0 1016453
10:00+22n55300 0.0 10171873
13:00+25n55250 0.0 10172300
16:00+27n45200 0.0 10162507
19:00+26n44190 0.0 10162330
22:00+22nw34270 0.0 101774